STARLINK-2400, 47817

Orbit data source: Space-Track

STARLINK-2400, 47817 is a payload satellite owned by SpaceX/Seattle (US) in LEO that was launched on Thu, 11 Mar 2021 UTC via an FALCON 9 launch vehicle from the Air Force Eastern Test Range (AFETR). Payload-class satellites include a variety of spacecraft equipped with specific instruments for various scientific and technological missions. These include communications satellites like Starlink; space stations such as the ISS; scientific satellites like the Hubble; Earth observation satellites from companies like Planet Labs, Umbra, and HawkEye 360; GPS; miniature CubeSats for education and research; and military/defense satellites.

Loading next visibility...
Identifier
47817, 2021-018AG
Orbit
LEO
Country
Flag of USUS
Related business
Manufacturer
SpaceX/Seattle
Mission
Operational Commercial Communications
Bus & Motor
STARLINK, Unknown motor
Mass
260 kg wet, ~248 kg dry
Launch date (UTC)
2021-03-11 (6 years ago)
Launch vehicle
FALCON 9
Launch site
Air Force Eastern Test Range (AFETR)
Object type
Payload
Rocket body
Debris
Shape & HBR
Box + 1 Pan, 10.1 m
Radar Cross Section
13.562 m², Large (>1 m²)

Expand to show TLE details & history
Last TLE update: 18 hours ago

TLE from 18 hours ago
0 STARLINK-2400
1 47817U 21018AG  26264.72373254  .00002174  00000-0  81777-4 0  9990
2 47817  53.1613  50.8188 0001459  68.5347 291.5810 15.31715130306754
Epoch: 2026-09-21T17:22Z
TLE epoch observation values (Epoch: 2026-09-21T17:22:10.491Z)
Latitude
-0.00001°
Longitude
149.67561°
Altitude
471.228 km
Speed
7.632 km/s
True Right ascension
03h 23m 16s
True Declination
0° 00' 00"
Sunlit
Object was in full shadow at epoch
Visualization orbit readout
Latitude
Unknown
Longitude
Unknown
Altitude
Unknown
Speed
Unknown
Apparent Right ascension
Unknown
Apparent Declination
Unknown
Sunlit
N/A
Visualization observer readout
Local Sidereal Time
04:10:13
Azimuth
Unknown
Elevation
Unknown
Doppler factor
Unknown
Orbital elements
Apogee altitude
471.951 km
Perigee altitude
469.952 km
Semi-major axis
6,849.088 km
Eccentricity
0.00015
Inclination
53.1613°
RAAN
50.8188°
Arg. of periapsis
68.5347°
True anomaly
291.56545°
Mean anomaly
291.581°
Eccentric anomaly
291.57323°
Mean motion
3.82908 °/min
Orbital period
94.02 mins
BSTAR
0.000081777
Loading maneuver chart data...
Computing Atmospheric mass density...
Loading historical data...
Loading historical data...
Loading historical data...
Loading historical data...
Loading historical data...
Loading historical data...
Loading historical data...

Documentation

Showing up to 5 results
|